Flag for French Guiana

Past Weather in Cayenne, French Guiana — Yesterday and Last 2 Weeks

Now
90 °F

Passing clouds.


Feels Like: 98 °F
Forecast: 88 / 76 °F
Wind: 12 mph from East

Location: Cayenne / Rochambeau
Current Time: Sep 20, 2020 at 3:57:43 pm
Latest Report: Sep 20, 2020 at 3:00 pm
Visibility: N/A
Pressure29.83 "Hg
Humidity: 59%
Dew Point: 73 °F
Location of CayenneLocation

Past Weather in Cayenne — Graph

°F

Cayenne Temperature Yesterday

Maximum temperature yesterday: 91 °F (at 12:30 pm)
Minimum temperature yesterday: 72 °F (at 6:30 am)
Average temperature yesterday: 81 °F

High & Low Weather Summary for the Past Weeks

 TemperatureHumidityPressure
High93 °F (Sep 8, 1:00 pm)100% (Sep 5, 8:30 pm)29.98 "Hg (Sep 5, 8:30 pm)
Low72 °F (Sep 9, 6:30 am)46% (Sep 14, 2:30 pm)29.71 "Hg (Sep 7, 4:30 pm)
Average81 °F83%29.87 "Hg
* Reported Sep 5 3:00 pm — Sep 20 3:00 pm, Cayenne. Weather by CustomWeather, © 2020

Note: Actual official high and low records may vary slightly from our data, if they occured in-between our weather recording intervals... More about our weather records

Cayenne Weather History for the Previous 24 Hours

Scroll right to see more
 ConditionsComfort  
Time TempWeatherWind HumidityBarometerVisibility
3:00 pm
Sun, Sep 20
90 °FPassing clouds.12 mph59%29.83 "HgN/A
2:30 pm90 °FPassing clouds.12 mph59%29.83 "HgN/A
2:00 pm90 °FPassing clouds.14 mph59%29.83 "HgN/A
1:30 pm91 °FScattered clouds.14 mph59%29.86 "HgN/A
1:00 pm90 °FPassing clouds.14 mph59%29.86 "HgN/A
12:30 pm90 °FPassing clouds.12 mph59%29.86 "HgN/A
12:00 pm90 °FScattered clouds.12 mph59%29.89 "HgN/A
11:30 am88 °FPassing clouds.12 mph62%29.89 "HgN/A
11:00 am90 °FMostly cloudy.10 mph59%29.92 "HgN/A
10:30 am88 °FBroken clouds.8 mph66%29.92 "HgN/A
10:00 am86 °FBroken clouds.7 mph70%29.92 "HgN/A
9:30 am86 °FPartly sunny.6 mph70%29.92 "HgN/A
9:00 am84 °FPartly sunny.7 mph79%29.92 "HgN/A
8:30 am82 °FSunny.3 mph84%29.92 "Hg10 mi
8:00 am79 °FSunny.No wind94%29.89 "Hg10 mi
7:30 am77 °FSunny.No wind100%29.89 "Hg10 mi
7:00 am75 °FSunny.No wind100%29.86 "Hg10 mi
6:30 am73 °FClear.No wind100%29.86 "Hg5 mi
6:00 am73 °FClear.No wind100%29.86 "Hg5 mi
5:30 am75 °FClear.No wind100%29.86 "Hg6 mi
5:00 am75 °FPassing clouds.No wind100%29.86 "HgN/A
4:30 am75 °FClear.No wind100%29.86 "Hg10 mi
4:00 am75 °FClear.No wind100%29.83 "Hg6 mi
3:00 am75 °FClear.No wind100%29.86 "Hg10 mi
2:30 am77 °FClear.No wind100%29.86 "Hg10 mi
2:00 am77 °FClear.2 mph100%29.86 "Hg10 mi
1:30 am77 °FClear.No wind100%29.86 "Hg10 mi
1:00 am79 °FPassing clouds.No wind94%29.89 "HgN/A
12:30 am79 °FMostly cloudy.No wind94%29.89 "HgN/A
12:00 am79 °FPassing clouds.1 mph94%29.89 "HgN/A
11:30 pm
Sat, Sep 19
79 °FClear.3 mph94%29.89 "Hg10 mi
11:00 pm79 °FClear.3 mph94%29.92 "Hg10 mi
10:30 pm79 °FPassing clouds.5 mph94%29.92 "HgN/A
10:00 pm81 °FClear.5 mph89%29.92 "Hg10 mi
9:30 pm81 °FClear.5 mph89%29.89 "Hg10 mi
9:00 pm81 °FClear.7 mph89%29.89 "Hg10 mi
8:30 pm82 °FClear.7 mph84%29.89 "Hg10 mi
8:00 pm82 °FClear.7 mph84%29.89 "Hg10 mi
7:30 pm82 °FClear.8 mph84%29.89 "Hg10 mi
7:00 pm82 °FClear.9 mph84%29.86 "Hg10 mi
6:30 pm82 °FClear.8 mph84%29.86 "Hg10 mi
6:00 pm84 °FSunny.9 mph74%29.86 "Hg10 mi
5:30 pm86 °FSunny.15 mph70%29.83 "Hg10 mi
5:00 pm88 °FSunny.15 mph62%29.83 "Hg10 mi
4:30 pm88 °FPassing clouds.16 mph66%29.83 "HgN/A
4:00 pm88 °FPassing clouds.16 mph66%29.83 "HgN/A
3:30 pm90 °FPassing clouds.17 mph63%29.83 "HgN/A
3:00 pm90 °FScattered clouds.17 mph63%29.83 "HgN/A
Weather by CustomWeather, © 2020

See weather overview